Flag for Namibia Weather past 2 weeks in Windhoek, Namibia

Now
54 °F

Cool.


Feels Like: 54 °F
Forecast: 42 / 78 °F
Wind: 2 mph from Southeast

Location: Windhoek

Current Time: Aug 21, 2014 at 5:42:41 AM

Latest Report: Aug 21, 2014 at 5:00 AM


Visibility: N/A

Pressure: 30.18 "Hg

Humidity: 41%

Dew point: 30 °F

Location of WindhoekLocation

Historic Weather in Windhoek — Graph

°F

Windhoek temperature yesterday

Maximum temperature yesterday: 77 °F (at 12:00 PM)
Minimum temperature yesterday: 57 °F (at 5:00 AM)
Average temperature yesterday: 66 °F

Past Weeks' High & Low Weather Summary

 TemperatureHumidityPressure
High81 °F (Aug 12, 2:00 PM)55% (Aug 20, 5:00 AM)30.36 "Hg (Aug 20, 5:00 AM)
Low37 °F (Aug 8, 6:00 AM)2% (Aug 7, 1:00 PM)30.09 "Hg (Aug 7, 1:00 PM)
Average62 °F22%30.21 "Hg
* Reported Aug 6 4:00 AM — Aug 21 4:00 AM, Windhoek, Weather by CustomWeather, © 2014

Note: Actual official high and low records may vary slightly from our data, if they occured in-between our weather recording intervals... More about our weather records

Advertising

Windhoek weather history for previous 24 hours

 ConditionsComfort  
Time TempWeatherWind HumidityBarometerVisibility
4:00 AM
Aug 21
54 °FCool.2 mph41%30.15 "HgN/A
3:00 AM55 °FRefreshingly cool.5 mph38%30.18 "HgN/A
2:00 AM54 °FCool.3 mph38%30.18 "HgN/A
1:00 AM57 °FRefreshingly cool.1 mph36%30.18 "HgN/A
12:00 AM57 °FRefreshingly cool.2 mph33%30.21 "HgN/A
11:00 PM
Aug 20
59 °FRefreshingly cool.6 mph31%30.18 "HgN/A
10:00 PM59 °FRefreshingly cool.5 mph31%30.21 "HgN/A
9:00 PM63 °FMild.2 mph27%30.21 "HgN/A
8:00 PM64 °FMild.3 mph26%30.18 "HgN/A
7:00 PM66 °FClear.3 mph24%30.18 "Hg10 mi
6:00 PM68 °FClear.5 mph23%30.18 "Hg10 mi
5:00 PM72 °FClear.9 mph17%30.18 "Hg10 mi
4:00 PM73 °FSunny.9 mph15%30.12 "Hg10 mi
3:00 PM75 °FSunny.8 mph16%30.15 "Hg10 mi
2:00 PM75 °FSunny.8 mph15%30.15 "Hg10 mi
1:00 PM77 °FSunny.9 mph14%30.18 "Hg10 mi
12:00 PM77 °FSunny.7 mph19%30.18 "Hg10 mi
11:00 AM72 °FSunny.6 mph23%30.24 "Hg10 mi
10:00 AM72 °FSunny.No wind25%30.27 "Hg10 mi
9:00 AM66 °FSunny.No wind35%30.27 "Hg10 mi
8:00 AM59 °FSunny.No wind51%30.24 "Hg10 mi
6:00 AM57 °FSunny.5 mph48%30.18 "Hg10 mi
5:00 AM57 °FRefreshingly cool.5 mph55%30.21 "HgN/A
Weather by CustomWeather, © 2014

See weather overviewHow to use our weather pages